Location: Home
(51.5204°N, 2.5456°W)
Time: 19:56:59
(UTC+00:00)

STRAND 1 - Pass Details

Date: 16 December 2019
Orbit: 768 x 781 km, 98.5° (Epoch: 28 January)

Event Time Altitude Azimuth Distance (km) Brightness Sun altitude
Rises 05:34:10 0° 133° (SE) 3,245 ? -22.8°
Reaches altitude 10° 05:36:40 10° 124° (SE) 2,320 ? -22.4°
Maximum altitude 05:41:10 33° 62° (ENE) 1,296 ? -21.7°
Drops below altitude 10° 05:45:41 10° 0° (N) 2,327 ? -21.0°
Enters shadow 05:47:38 - 353° (N) 3,047 ? -20.8°
